This demonstration page uses our WeatherBlox Daily Observations layout. Learn more.

Left ArrowRight Arrow

41.86663, -103.66717

Hourly Observations for March 12, 2018

Temp ( °F °C ) Dew Point ( °F °C ) Humidity (%) Winds ( mph kmh ) Pressure ( in mb ) Visibility ( mi km ) Precip ( " mm )
12:53 am 00:53 Clear 25 -3.9 15 -9.4 66 66 E 5 7 30.40 1030 10 16 N/A
1:53 am 01:53 Clear 23 -5 15 -9.4 72 72 E 8 13 30.39 1029 10 16 N/A
2:53 am 02:53 Clear 22 -5.6 14 -10 71 71 E 8 13 30.36 1028 10 16 N/A
3:53 am 03:53 Clear 21 -6.1 13 -10.6 71 71 N N/A 30.34 1028 10 16 N/A
4:53 am 04:53 Clear 21 -6.1 14 -10 74 74 ESE 7 11 30.32 1027 10 16 N/A
5:53 am 05:53 Clear 20 -6.7 13 -10.6 74 74 E 6 9 30.34 1027 10 16 N/A
6:53 am 06:53 Clear 23 -5 15 -9.4 72 72 SSE 5 7 30.35 1028 10 16 N/A
7:53 am 07:53 Sunny 24 -4.4 17 -8.3 75 75 ESE 5 7 30.38 1029 10 16 N/A
8:53 am 08:53 Sunny 27 -2.8 18 -7.8 69 69 SE 6 9 30.36 1028 10 16 N/A
9:53 am 09:53 Sunny 33 0.6 20 -6.7 58 58 ESE 13 20 30.35 1028 10 16 N/A
10:53 am 10:53 Mostly Sunny 37 2.8 21 -6.1 52 52 E 10 17 30.35 1028 10 16 N/A
11:53 am 11:53 Mostly Sunny 42 5.6 22 -5.6 45 45 SE 7 11 30.34 1027 10 16 N/A
12:53 pm 12:53 Mostly Sunny 47 8.3 23 -5 39 39 ESE 10 17 30.29 1026 10 16 N/A
1:53 pm 13:53 Mostly Cloudy 51 10.6 20 -6.7 29 29 E 12 19 30.25 1025 10 16 N/A
2:53 pm 14:53 Cloudy 53 11.7 16 -8.9 23 23 E 15 24 30.23 1024 10 16 N/A
3:53 pm 15:53 Mostly Cloudy 54 12.2 16 -8.9 22 22 E 15 24 30.23 1024 10 16 N/A
4:53 pm 16:53 Sunny 54 12.2 16 -8.9 22 22 ENE 10 17 30.24 1024 10 16 N/A
5:53 pm 17:53 Sunny 52 11.1 16 -8.9 24 24 ESE 9 15 30.26 1025 10 16 N/A
6:53 pm 18:53 Sunny 44 6.7 19 -7.2 37 37 E 8 13 30.30 1026 10 16 N/A
7:53 pm 19:53 Clear 36 2.2 19 -7.2 50 50 ESE 7 11 30.34 1027 10 16 N/A
8:53 pm 20:53 Clear 32 undefined 18 -7.8 56 56 E 6 9 30.36 1028 10 16 N/A
9:53 pm 21:53 Clear 30 -1.1 19 -7.2 64 64 E 8 13 30.35 1028 10 16 N/A
10:53 pm 22:53 Clear 29 -1.7 19 -7.2 66 66 E 7 11 30.36 1028 10 16 N/A
11:53 pm 23:53 Clear 28 -2.2 18 -7.8 66 66 E 6 9 30.36 1028 10 16 N/A

Powered by AerisWeather